| time (UTC) | temp C | wind direction | speed KPH | gust KPH | rain 1hr cm | rain 24hr cm | rain mn cm | humidity % | barometer mb |
| 20260507073006 | 10 | 313 | 0.0 | 0.0 | 0.00 | 0.00 | 0.00 | 82 | 1017.9 |
| 20260507071504 | 9 | 311 | 1.6 | 0.0 | 0.00 | 0.00 | 0.00 | 83 | 1017.7 |
| 20260507070001 | 9 | 304 | 0.0 | 0.0 | 0.00 | 0.00 | 0.00 | 83 | 1017.6 |
| 20260507064618 | 9 | 300 | 3.2 | 0.0 | 0.00 | 0.00 | 0.00 | 83 | 1017.5 |
| 20260507063058 | 9 | 332 | 0.0 | 0.0 | 0.00 | 0.00 | 0.00 | 84 | 1017.3 |
| 20260507061555 | 8 | 332 | 1.6 | 0.0 | 0.00 | 0.00 | 0.00 | 84 | 1017.2 |
| 20260507060052 | 9 | 311 | 0.0 | 0.0 | 0.00 | 0.00 | 0.00 | 85 | 1017.1 |
| 20260507054603 | 9 | 267 | 0.0 | 0.0 | 0.00 | 0.00 | 0.00 | 85 | 1016.8 |
| 20260507053050 | 8 | 261 | 0.0 | 0.0 | 0.00 | 0.00 | 0.00 | 86 | 1016.7 |
| 20260507051547 | 8 | 261 | 0.0 | 0.0 | 0.00 | 0.00 | 0.00 | 86 | 1016.5 |
| 20260507050044 | 8 | 261 | 0.0 | 0.0 | 0.00 | 0.00 | 0.00 | 86 | 1016.2 |
| 20260507044540 | 8 | 289 | 0.0 | 0.0 | 0.00 | 0.00 | 0.00 | 86 | 1016.1 |
| 20260507043038 | 8 | 288 | 3.2 | 0.0 | 0.00 | 0.00 | 0.00 | 85 | 1015.8 |
| 20260507041549 | 8 | 242 | 0.0 | 0.0 | 0.00 | 0.00 | 0.00 | 86 | 1015.7 |
| 20260507040032 | 8 | 211 | 1.6 | 0.0 | 0.00 | 0.00 | 0.00 | 86 | 1015.3 |
| 20260507034530 | 8 | 211 | 1.6 | 0.0 | 0.00 | 0.00 | 0.00 | 86 | 1015.4 |
| 20260507033033 | 8 | 211 | 4.8 | 0.0 | 0.00 | 0.00 | 0.00 | 87 | 1015.3 |
| 20260507031528 | 8 | 211 | 0.0 | 0.0 | 0.00 | 0.00 | 0.00 | 87 | 1015.1 |
| 20260507030026 | 8 | 217 | 4.8 | 0.0 | 0.00 | 0.00 | 0.00 | 87 | 1015.0 |
| 20260507024524 | 8 | 130 | 0.0 | 0.0 | 0.00 | 0.00 | 0.00 | 87 | 1014.9 |
| 20260507023023 | 8 | 355 | 0.0 | 0.0 | 0.00 | 0.00 | 0.00 | 87 | 1015.0 |
| 20260507021523 | 8 | 355 | 0.0 | 0.0 | 0.00 | 0.00 | 0.00 | 88 | 1015.0 |
| 20260507020022 | 8 | 355 | 0.0 | 0.0 | 0.00 | 0.00 | 0.00 | 88 | 1014.9 |
| 20260507014530 | 8 | 355 | 1.6 | 0.0 | 0.00 | 0.00 | 0.00 | 88 | 1014.7 |
| 20260507013034 | 8 | 355 | 1.6 | 0.0 | 0.00 | 0.00 | 0.00 | 88 | 1014.6 |
| 20260507011531 | 8 | 346 | 1.6 | 0.0 | 0.00 | 0.00 | 0.00 | 88 | 1014.6 |
| 20260507010016 | 8 | 342 | 0.0 | 0.0 | 0.00 | 0.00 | 0.00 | 88 | 1014.4 |
| 20260507004517 | 9 | 342 | 0.0 | 0.0 | 0.00 | 0.00 | 0.00 | 89 | 1014.5 |
| 20260507003013 | 8 | 342 | 0.0 | 0.0 | 0.00 | 0.00 | 0.00 | 89 | 1014.3 |
| 20260507001512 | 8 | 341 | 0.0 | 0.0 | 0.00 | 0.00 | 0.00 | 89 | 1014.1 |
| 20260507000022 | 8 | 341 | 1.6 | 0.0 | 0.00 | 0.00 | 0.00 | 89 | 1014.1 |
| 20260506234508 | 8 | 346 | 0.0 | 0.0 | 0.00 | 0.00 | 0.00 | 90 | 1014.0 |
| 20260506233008 | 9 | 344 | 3.2 | 0.0 | 0.00 | 0.00 | 0.00 | 90 | 1014.0 |
| 20260506231505 | 9 | 329 | 0.0 | 0.0 | 0.00 | 0.00 | 0.00 | 90 | 1013.9 |
| 20260506230002 | 9 | 329 | 1.6 | 0.0 | 0.00 | 0.00 | 0.00 | 90 | 1013.8 |
| 20260506224604 | 9 | 323 | 0.0 | 0.0 | 0.00 | 0.00 | 0.00 | 90 | 1013.7 |
| 20260506223126 | 9 | 325 | 0.0 | 0.0 | 0.00 | 0.00 | 0.00 | 90 | 1013.9 |
| 20260506221603 | 9 | 324 | 1.6 | 0.0 | 0.00 | 0.00 | 0.00 | 90 | 1013.7 |
| 20260506220055 | 9 | 345 | 1.6 | 0.0 | 0.00 | 0.00 | 0.00 | 90 | 1013.7 |
| 20260506214603 | 9 | 344 | 1.6 | 0.0 | 0.00 | 0.00 | 1.40 | 90 | 1013.7 |
| 20260506213051 | 9 | 329 | 0.0 | 0.0 | 0.00 | 0.00 | 1.40 | 89 | 1013.6 |
| 20260506211549 | 10 | 329 | 1.6 | 0.0 | 0.00 | 0.00 | 1.40 | 89 | 1013.6 |
| 20260506210048 | 10 | 334 | 0.0 | 0.0 | 0.00 | 0.00 | 1.40 | 89 | 1013.5 |
| 20260506204548 | 10 | 334 | 0.0 | 0.0 | 0.00 | 0.00 | 1.40 | 89 | 1013.5 |
| 20260506203047 | 10 | 300 | 0.0 | 0.0 | 0.00 | 0.00 | 1.40 | 89 | 1013.2 |
| 20260506201543 | 10 | 308 | 0.0 | 0.0 | 0.00 | 0.00 | 1.40 | 89 | 1013.0 |
| 20260506194540 | 10 | 346 | 0.0 | 0.0 | 0.00 | 0.00 | 1.40 | 89 | 1012.6 |
| 20260506193040 | 10 | 333 | 0.0 | 0.0 | 0.00 | 0.00 | 1.40 | 90 | 1012.4 |
| 20260506191536 | 10 | 333 | 1.6 | 0.0 | 0.00 | 0.00 | 1.40 | 89 | 1012.1 |
| 20260506190035 | 10 | 13 | 3.2 | 0.0 | 0.00 | 0.00 | 1.40 | 90 | 1012.0 |
| 20260506184530 | 10 | 355 | 1.6 | 0.0 | 0.00 | 0.00 | 1.40 | 90 | 1011.5 |
| 20260506183030 | 11 | 360 | 0.0 | 0.0 | 0.00 | 0.00 | 1.40 | 90 | 1011.3 |
| 20260506181531 | 11 | 360 | 0.0 | 0.0 | 0.00 | 0.00 | 1.40 | 90 | 1011.0 |
| 20260506180033 | 11 | 344 | 1.6 | 0.0 | 0.00 | 0.00 | 1.40 | 91 | 1010.9 |
| 20260506174526 | 11 | 307 | 3.2 | 0.0 | 0.00 | 0.00 | 1.40 | 91 | 1010.8 |
| 20260506173021 | 11 | 37 | 3.2 | 0.0 | 0.00 | 0.00 | 1.40 | 91 | 1010.7 |
| 20260506171535 | 11 | 26 | 3.2 | 0.0 | 0.00 | 0.00 | 1.40 | 91 | 1010.7 |
| 20260506170018 | 11 | 5 | 3.2 | 0.0 | 0.00 | 0.00 | 1.40 | 91 | 1010.5 |
| 20260506164516 | 12 | 340 | 1.6 | 0.0 | 0.00 | 0.00 | 1.40 | 90 | 1010.6 |
| 20260506163021 | 12 | 351 | 1.6 | 0.0 | 0.00 | 0.00 | 1.37 | 91 | 1010.4 |
| 20260506161521 | 12 | 347 | 1.6 | 0.0 | 0.00 | 0.00 | 1.30 | 90 | 1010.4 |
| 20260506160015 | 12 | 338 | 0.0 | 0.0 | 0.00 | 0.00 | 1.30 | 90 | 1010.2 |
| 20260506154513 | 12 | 227 | 1.6 | 0.0 | 0.00 | 0.00 | 1.27 | 90 | 1010.1 |
| 20260506153012 | 13 | 224 | 0.0 | 0.0 | 0.00 | 0.00 | 1.19 | 90 | 1010.2 |
| 20260506151512 | 13 | 223 | 0.0 | 0.0 | 0.00 | 0.00 | 1.17 | 90 | 1010.0 |
| 20260506150011 | 13 | 224 | 0.0 | 0.0 | 0.00 | 0.00 | 1.14 | 90 | 1009.9 |
| 20260506144511 | 13 | 224 | 0.0 | 0.0 | 0.00 | 0.00 | 1.09 | 88 | 1009.8 |
| 20260506143011 | 14 | 224 | 1.6 | 0.0 | 0.00 | 0.00 | 1.02 | 87 | 1009.8 |
| 20260506141510 | 15 | 221 | 0.0 | 0.0 | 0.00 | 0.00 | 0.97 | 87 | 1009.6 |
| 20260506140010 | 15 | 221 | 1.6 | 0.0 | 0.00 | 0.00 | 0.97 | 84 | 1009.5 |
| 20260506134519 | 15 | 228 | 0.0 | 0.0 | 0.00 | 0.00 | 0.71 | 80 | 1009.4 |
| 20260506133008 | 15 | 228 | 0.0 | 0.0 | 0.00 | 0.00 | 0.71 | 79 | 1009.5 |
| 20260506131509 | 15 | 228 | 0.0 | 0.0 | 0.00 | 0.00 | 0.71 | 79 | 1009.5 |
| 20260506130009 | 16 | 247 | 4.8 | 0.0 | 0.00 | 0.00 | 0.71 | 75 | 1009.5 |
| 20260506124511 | 16 | 227 | 6.4 | 0.0 | 0.00 | 0.00 | 0.71 | 73 | 1009.3 |
| 20260506123007 | 16 | 271 | 8.0 | 0.0 | 0.00 | 0.00 | 0.71 | 72 | 1009.3 |
| 20260506121509 | 16 | 237 | 6.4 | 0.0 | 0.00 | 0.00 | 0.71 | 70 | 1009.3 |
| 20260506120010 | 16 | 245 | 4.8 | 0.0 | 0.00 | 0.00 | 0.71 | 69 | 1009.2 |
| 20260506114504 | 16 | 225 | 11.3 | 0.0 | 0.00 | 0.00 | 0.71 | 68 | 1009.1 |
| 20260506113005 | 17 | 227 | 11.3 | 0.0 | 0.00 | 0.00 | 0.71 | 67 | 1009.1 |
| 20260506111622 | 17 | 236 | 11.3 | 0.0 | 0.00 | 0.00 | 0.71 | 68 | 1009.2 |
| 20260506110057 | 16 | 210 | 11.3 | 0.0 | 0.00 | 0.00 | 0.71 | 69 | 1009.4 |
| 20260506104603 | 16 | 211 | 9.7 | 0.0 | 0.00 | 0.00 | 0.71 | 72 | 1009.5 |
| 20260506103059 | 16 | 232 | 12.9 | 0.0 | 0.00 | 0.00 | 0.71 | 72 | 1009.4 |
| 20260506101551 | 15 | 220 | 4.8 | 0.0 | 0.00 | 0.00 | 0.71 | 76 | 1009.7 |
| 20260506100049 | 15 | 214 | 6.4 | 0.0 | 0.00 | 0.00 | 0.71 | 77 | 1009.6 |
| 20260506094547 | 15 | 207 | 8.0 | 0.0 | 0.00 | 0.00 | 0.71 | 77 | 1009.6 |
| 20260506093052 | 15 | 225 | 8.0 | 0.0 | 0.00 | 0.00 | 0.71 | 78 | 1009.6 |
| 20260506091546 | 15 | 225 | 8.0 | 0.0 | 0.00 | 0.00 | 0.71 | 78 | 1009.5 |
| 20260506090044 | 15 | 227 | 8.0 | 0.0 | 0.00 | 0.00 | 0.71 | 78 | 1009.4 |
| 20260506084544 | 15 | 229 | 8.0 | 0.0 | 0.00 | 0.00 | 0.71 | 77 | 1009.3 |
| 20260506083059 | 15 | 199 | 14.5 | 0.0 | 0.00 | 0.00 | 0.71 | 77 | 1009.3 |
| 20260506081547 | 15 | 215 | 8.0 | 0.0 | 0.00 | 0.00 | 0.71 | 83 | 1009.1 |